Terug naar catalogus

CZ-6A DEB

ActiefPO
NORAD 54517·DEBRIS·🇨🇳 China

Gelanceerd Nov 11, 2022 vanaf Taiyuan Satellite Launch Center

Loading…

Volgende Passages (komende 24 uur)

TLE

VersSource: Space-Track

Epoch: Sep 13, 2026, 17:49 UTC

1 54517U 22151JV  26256.74297568  .00008648  00000-0  11319-2 0  9995
2 54517  98.6246 334.4020 0062401 347.9068  12.0639 14.79302067203572

Volg CZ-6A DEB in realtime met AllMySat

Download on the App Store